[[{"header":{"parameterUnit":"m.s-1","parameterCategory":2,"la1":30.2991,"la2":30.254,"lo1":-89.0895,"lo2":-89.0444,"dy":0.0017,"dx":0.0017,"nx":28,"ny":28,"refTime":"2025-05-30T09:00:00:Z","depth":"0","parameterNumber":2,"parameterNumberName":"U-component_of_CURRENTS"},"data":[0,0,0,0,0,0,0,0,0,0,0,0,0,0,0,0,0,0,0,0,0,0,0,0,0,0,0,0,0,0,0,0,0,0,0,0,0,0,0,0,0,0,0,0,0,0,0,0,0,0,0,0,0,0,0,0,0,0,0.2168,0.2169,0,0.2211,0.2211,0.2211,0.2193,0.2192,0.2192,0.2191,0.2161,0.2161,0.2161,0,0,0,0,0,0,0,0,0,0,0,0,0,0.2095,0.2096,0.2168,0.2169,0.217,0.2211,0.2211,0.2211,0.2193,0.2192,0.2192,0.2191,0.2161,0.2161,0.2161,0,0,0,0,0,0,0,0,0,0,0,0,0,0.2126,0.2096,0.2168,0.217,0.2171,0.2211,0.2211,0.2211,0.2193,0.2192,0.2192,0.2191,0.2161,0.2161,0.2161,0.2173,0,0,0.2159,0.2159,0,0,0,0,0,0,0,0,0.2124,0.2128,0.2169,0.217,0.2171,0.2201,0.2175,0.2197,0.2193,0.2179,0.2191,0.219,0.2172,0.2171,0.2173,0.2172,0.2171,0.2159,0.2159,0.2159,0.2158,0,0,0,0,0,0,0,0.2122,0.2126,0.2179,0.217,0.2172,0.2178,0.2181,0.2179,0.2173,0.218,0.218,0.2194,0.2171,0.2174,0.2172,0.217,0.2159,0.2159,0.2158,0.2158,0.2187,0.2188,0,0,0,0,0,0,0.2128,0.2124,0.2178,0.2181,0.2152,0.218,0.2183,0.2188,0.2175,0.2175,0.2195,0.2193,0.2175,0.2173,0.2171,0.2233,0.2159,0.2158,0.2158,0.2186,0.2187,0.2188,0,0,0,0,0,0,0.2126,0.2132,0.2176,0.2158,0.2165,0.2183,0.2188,0.2189,0.2198,0.2188,0.2185,0.2204,0.2174,0.2172,0.2206,0.2229,0.2158,0.2158,0.2185,0.2186,0.2188,0.2325,0,0,0,0,0,0,0.2123,0.213,0.2133,0.2159,0.2167,0.222,0.2189,0.2191,0.2211,0.2209,0.2196,0.2192,0.2174,0.2207,0.2205,0.2227,0.2157,0.2183,0.2185,0.2187,0.2319,0.2331,0.2341,0,0,0,0,0,0.212,0.213,0.2133,0.214,0.2171,0.2222,0.2227,0.2232,0.2212,0.2232,0.2235,0.2192,0.2216,0.2209,0.2207,0.2229,0.2182,0.2185,0.2187,0.2314,0.2328,0.2341,0,0,0,0,0,0,0.21,0.2131,0.2134,0.2152,0.2195,0.2221,0.2236,0.2241,0.2257,0.225,0.2227,0.2226,0.2262,0.2225,0.2217,0.2238,0.2183,0.2185,0.228,0.2293,0.2304,0.2306,0.2157,0,0,0,0,0,0.2099,0.2111,0.2154,0.2171,0.2191,0.2214,0.2232,0.2245,0.2266,0.2271,0.2273,0.2261,0.2268,0.2267,0.2268,0.2289,0.2281,0.2291,0.2302,0.2312,0.231,0.235,0.2366,0.2196,0.2196,0.2196,0,0,0.2094,0.2116,0.2121,0.2168,0.2191,0.2238,0.2222,0.2262,0.2302,0.2265,0.2314,0.2311,0.2285,0.232,0.2327,0.2292,0.2359,0.2315,0.2324,0.2316,0.2355,0.2371,0.2386,0.2198,0.2197,0.2197,0,0,0.2105,0.2114,0.2135,0.2176,0.223,0.2256,0.2273,0.232,0.2339,0.2395,0.2376,0.2398,0.2403,0.2402,0.2394,0.246,0.2426,0.2444,0.2497,0.2538,0.2552,0.2565,0.26,0.2615,0.2439,0.2439,0.2439,0,0.2098,0.2134,0.2153,0.2198,0.2236,0.2268,0.2317,0.2352,0.2408,0.243,0.2423,0.2452,0.2441,0.2472,0.25,0.2487,0.2503,0.2457,0.2556,0.2568,0.2579,0.2611,0.2626,0.2446,0.2445,0.2444,0.2444,0,0.2139,0.2171,0.2192,0.2255,0.23,0.2351,0.2411,0.2457,0.2482,0.2511,0.2563,0.2569,0.2571,0.2578,0.2565,0.2625,0.2612,0.2581,0.2531,0.2605,0.2633,0.2646,0.2456,0.2453,0.2451,0.245,0,0,0.211,0.22,0.2208,0.2249,0.2336,0.238,0.2454,0.2529,0.2563,0.262,0.2661,0.2699,0.2688,0.2678,0.2664,0.2705,0.2814,0.2683,0.2682,0.2734,0.2915,0.2786,0.2787,0.2814,0.2816,0.2818,0.2913,0,0.2138,0.2222,0.2265,0.2352,0.2403,0.246,0.2523,0.2592,0.2638,0.2688,0.2706,0.2733,0.2728,0.2725,0.2777,0.28,0.2851,0.2791,0.2819,0.282,0.271,0.2798,0.2648,0.2708,0.2925,0.2927,0.2928,0,0.2164,0.2222,0.2305,0.2401,0.2427,0.2481,0.2575,0.2637,0.2709,0.2737,0.2773,0.2778,0.284,0.2813,0.2918,0.2886,0.2913,0.2936,0.2939,0.2773,0.2713,0.2662,0.2723,0.2591,0.2948,0.2946,0.2945,0,0.2137,0.2247,0.2312,0.235,0.2464,0.2504,0.2562,0.2644,0.2694,0.2752,0.2779,0.2844,0.2865,0.2932,0.2975,0.296,0.3086,0.3057,0.2971,0.2962,0.2811,0.2783,0.2753,0.3135,0.3135,0.3135,0.3134,0,0.2145,0.2196,0.2303,0.2338,0.242,0.2492,0.2565,0.2624,0.2694,0.2753,0.2786,0.2836,0.2901,0.2967,0.3009,0.303,0.3112,0.2997,0.2982,0.2852,0.2828,0.2682,0.2658,0.3138,0.3137,0.3137,0.3136,0,0.2098,0.2168,0.2252,0.237,0.2406,0.2461,0.2569,0.2624,0.2677,0.2751,0.2766,0.2855,0.2943,0.2995,0.3095,0.3047,0.2981,0.3069,0.2904,0.2865,0.2608,0.2598,0.251,0.2448,0.2985,0.2983,0.2981,0,0.2084,0.2119,0.2257,0.232,0.2374,0.246,0.2526,0.2606,0.2662,0.2771,0.2808,0.2893,0.2967,0.3039,0.2984,0.3003,0.2931,0.2816,0.2738,0.258,0.2561,0.2502,0.2454,0.2618,0.2613,0.2609,0.2606,0,0.2064,0.211,0.219,0.2318,0.2402,0.2485,0.2574,0.2611,0.2707,0.2753,0.2849,0.2911,0.2948,0.2892,0.2846,0.2815,0.2635,0.2727,0.2623,0.2314,0.2194,0.2129,0.2576,0.257,0.2573,0.2576,0.2578,0.258,0.2057,0.211,0.2227,0.2344,0.2437,0.2516,0.2538,0.2617,0.268,0.2715,0.2831,0.2848,0.2772,0.2693,0.2632,0.2307,0.2415,0.2172,0.2194,0.2164,0.2022,0.2369,0.2293,0.2295,0.2297,0.2298,0.23,0,0.2067,0.2144,0.2255,0.2389,0.2472,0.2517,0.2581,0.2566,0.2591,0.2639,0.2681,0.2577,0.2441,0.2308,0.1983,0.1801,0.1733,0.1695,0.1597,0.1596,0.1947,0.184,0.1589,0.1589,0.1589,0.1589,0.159,0.159,0.2087,0.2183,0.2248,0.2398,0.2475,0.25,0.2506,0.2457,0.2451,0.2353,0.2265,0.227,0.2095,0.1786,0.1454,0.1382,0.1278,0.1186,0.1241,0.1479,0.1525,0.1569,0.1459,0.1132,0.1132,0.0797,0.0794,0.0792]},{"header":{"parameterUnit":"m.s-1","parameterCategory":2,"la1":30.2991,"la2":30.254,"lo1":-89.0895,"lo2":-89.0444,"dy":0.0017,"dx":0.0017,"nx":28,"ny":28,"refTime":"2025-05-30T09:00:00:Z","depth":"0","parameterNumber":3,"parameterNumberName":"V-component_of_CURRENTS"},"data":[0,0,0,0,0,0,0,0,0,0,0,0,0,0,0,0,0,0,0,0,0,0,0,0,0,0,0,0,0,0,0,0,0,0,0,0,0,0,0,0,0,0,0,0,0,0,0,0,0,0,0,0,0,0,0,0,0,0,-0.0016,-0.0016,0,-0.0023,-0.0023,-0.0023,-0.0029,-0.0029,-0.0029,-0.0029,-0.0029,-0.0029,-0.0029,0,0,0,0,0,0,0,0,0,0,0,0,0,-0.0034,-0.0034,-0.0016,-0.0016,-0.0016,-0.0023,-0.0023,-0.0023,-0.0029,-0.0029,-0.0029,-0.0029,-0.0029,-0.0029,-0.0029,0,0,0,0,0,0,0,0,0,0,0,0,0,-0.0033,-0.0034,-0.0016,-0.0019,-0.002,-0.0023,-0.0023,-0.0023,-0.0029,-0.0029,-0.0029,-0.0029,-0.0029,-0.0029,-0.0029,-0.003,0,0,-0.0029,-0.003,0,0,0,0,0,0,0,0,-0.0033,-0.0033,-0.0019,-0.0019,-0.0019,-0.0024,-0.003,-0.0025,-0.0029,-0.0026,-0.0029,-0.0029,-0.0026,-0.0027,-0.003,-0.003,-0.003,-0.0029,-0.003,-0.003,-0.003,0,0,0,0,0,0,0,-0.0033,-0.0033,-0.002,-0.0019,-0.0019,-0.0029,-0.0029,-0.0029,-0.0027,-0.0027,-0.0027,-0.0026,-0.0027,-0.0029,-0.003,-0.003,-0.0029,-0.003,-0.003,-0.003,-0.0021,-0.0021,0,0,0,0,0,0,-0.0029,-0.0032,-0.002,-0.002,-0.0025,-0.0029,-0.0028,-0.0024,-0.0027,-0.0028,-0.0026,-0.0026,-0.0029,-0.0029,-0.003,-0.0026,-0.003,-0.003,-0.003,-0.0022,-0.0021,-0.0021,0,0,0,0,0,0,-0.0029,-0.0028,-0.0019,-0.0026,-0.0025,-0.0028,-0.0023,-0.0024,-0.0027,-0.0027,-0.0027,-0.0028,-0.0029,-0.0029,-0.0026,-0.0026,-0.003,-0.003,-0.0022,-0.0022,-0.0021,-0.0022,0,0,0,0,0,0,-0.003,-0.0028,-0.0024,-0.0025,-0.0025,-0.0015,-0.0023,-0.0024,-0.0026,-0.0026,-0.0029,-0.0029,-0.0029,-0.0026,-0.0026,-0.0026,-0.003,-0.0022,-0.0022,-0.0021,-0.0022,-0.0022,-0.0021,0,0,0,0,0,-0.003,-0.0023,-0.0024,-0.0023,-0.0019,-0.0015,-0.0015,-0.0018,-0.0026,-0.0022,-0.0026,-0.0029,-0.0023,-0.0026,-0.0026,-0.0026,-0.0022,-0.0022,-0.0021,-0.0023,-0.0022,-0.0021,0,0,0,0,0,0,-0.003,-0.0023,-0.0024,-0.0015,-0.0013,-0.0015,-0.0013,-0.0019,-0.002,-0.0022,-0.0026,-0.0026,-0.0025,-0.0023,-0.0026,-0.0022,-0.0023,-0.0023,-0.0024,-0.0023,-0.0023,-0.0025,-0.003,0,0,0,0,0,-0.0028,-0.002,-0.0017,-0.001,-0.0008,-0.0013,-0.0013,-0.0014,-0.0015,-0.0016,-0.0018,-0.002,-0.0023,-0.0021,-0.0021,-0.0018,0.0008,-0.0017,-0.0017,-0.0016,-0.0017,0.0035,0.0041,-0.0019,-0.0019,-0.0019,0,0,-0.0025,-0.0021,-0.0017,-0.001,-0.001,-0.0004,-0.0013,-0.0009,-0.0009,-0.0016,-0.0015,-0.0018,-0.0022,-0.0019,-0.0018,-0.0018,0.0015,-0.0016,-0.0015,-0.0017,0.0036,0.0042,0.0048,-0.0019,-0.0019,-0.0019,0,0,-0.0014,-0.0014,-0.0002,0.0,0.0004,0.0001,0.0003,0.0003,-0.0001,0.0,-0.0008,-0.001,-0.0009,-0.0013,-0.0016,-0.0011,0.0015,-0.001,-0.0008,0.0043,0.0048,0.0053,0.0098,0.0107,-0.0008,-0.0008,-0.0008,0,-0.0011,0.0003,0.0002,0.0011,0.0012,0.0004,0.0012,0.0007,0.0008,0.0004,0.0004,-0.0001,-0.0007,-0.001,-0.0012,-0.0011,0.0025,-0.0012,0.0044,0.005,0.0055,0.0099,0.0109,-0.0008,-0.0008,-0.0008,-0.0008,0,0.0011,0.0017,0.0023,0.0032,0.0031,0.0038,0.0031,0.0028,0.002,0.0016,0.0013,0.0009,0.0007,0.0003,-0.0007,0.0018,0.0035,0.0039,0.0044,0.0062,0.0107,0.0117,-0.0008,-0.0008,-0.0008,-0.0008,0,0,0.0028,0.0038,0.0039,0.0042,0.0042,0.0044,0.0039,0.0034,0.0032,0.0029,0.0037,0.0016,0.0014,0.001,0.0003,0.0036,0.0097,0.0053,0.0055,0.0098,0.0218,0.02,0.021,0.0122,0.0124,0.0125,0.0236,0,0.0046,0.0067,0.0063,0.0072,0.008,0.0064,0.006,0.0051,0.0046,0.0054,0.0042,0.005,0.0017,0.0024,0.0047,0.0099,0.0125,0.0067,0.0193,0.0196,0.018,0.0222,0.0229,0.0326,0.0246,0.0248,0.0249,0,0.0071,0.0079,0.0097,0.009,0.0091,0.0091,0.0081,0.0078,0.0076,0.0074,0.0072,0.0075,0.0103,0.0083,0.0167,0.0139,0.0168,0.0201,0.0207,0.0197,0.0198,0.0295,0.0349,0.0284,0.0266,0.0264,0.0263,0,0.0091,0.0098,0.0111,0.0112,0.0108,0.0103,0.0095,0.0085,0.0087,0.0097,0.0119,0.0135,0.0177,0.0216,0.0259,0.0233,0.0371,0.0348,0.035,0.0349,0.0381,0.038,0.0387,0.0397,0.0397,0.0397,0.0396,0,0.0115,0.0123,0.0121,0.013,0.0132,0.012,0.0123,0.0113,0.0122,0.0149,0.0136,0.0183,0.0218,0.0287,0.0304,0.0373,0.041,0.0361,0.0381,0.0379,0.0377,0.0341,0.0287,0.0401,0.04,0.0399,0.0398,0,0.014,0.0144,0.0155,0.015,0.0147,0.0147,0.014,0.0145,0.0153,0.0198,0.0212,0.026,0.0364,0.0388,0.0484,0.0448,0.0479,0.0504,0.0491,0.0506,0.0416,0.0362,0.0393,0.0398,0.0532,0.0532,0.0532,0,0.0158,0.0169,0.0171,0.0177,0.0175,0.0172,0.0171,0.0161,0.0178,0.0254,0.0292,0.0392,0.0484,0.0598,0.0582,0.0619,0.0538,0.0582,0.0507,0.042,0.0376,0.0332,0.0332,0.0561,0.0561,0.0562,0.0562,0,0.0183,0.0185,0.0195,0.0208,0.0209,0.0212,0.0217,0.0241,0.026,0.033,0.0451,0.0543,0.0633,0.07,0.0698,0.0683,0.053,0.0587,0.0521,0.0414,0.0348,0.0361,0.0468,0.0565,0.0565,0.0565,0.0565,0.0565,0.0199,0.0208,0.0223,0.023,0.024,0.0265,0.0294,0.0342,0.0417,0.0566,0.0598,0.0797,0.0786,0.0813,0.0745,0.0583,0.0581,0.0518,0.0468,0.0439,0.0406,0.0502,0.0596,0.0595,0.0595,0.0595,0.0595,0,0.0208,0.0221,0.024,0.0259,0.0281,0.0279,0.0335,0.041,0.055,0.0726,0.0866,0.101,0.0961,0.0858,0.0626,0.0489,0.0443,0.0408,0.0352,0.0366,0.0489,0.0448,0.0484,0.0484,0.0484,0.0484,0.0484,0.0485,0.0216,0.0234,0.0242,0.0284,0.0307,0.0368,0.0418,0.0572,0.0729,0.1004,0.118,0.1288,0.117,0.0687,0.0388,0.0332,0.0256,0.0225,0.0202,0.026,0.0266,0.0272,0.0221,0.0209,0.0209,0.0117,0.0116,0.0115]}],[{"header":{"parameterUnit":"m.s-1","parameterCategory":2,"la1":30.2991,"la2":30.254,"lo1":-89.0895,"lo2":-89.0444,"dy":0.0017,"dx":0.0017,"nx":28,"ny":28,"refTime":"2025-05-30T09:00:00:Z","depth":"2","parameterNumber":2,"parameterNumberName":"U-component_of_CURRENTS"},"data":[0,0,0,0,0,0,0,0,0,0,0,0,0,0,0,0,0,0,0,0,0,0,0,0,0,0,0,0,0,0,0,0,0,0,0,0,0,0,0,0,0,0,0,0,0,0,0,0,0,0,0,0,0,0,0,0,0,0,0.1359,0.1358,0,0.1344,0.1345,0.1345,0.1401,0.1402,0.1403,0.1404,0.1428,0.1428,0.1427,0,0,0,0,0,0,0,0,0,0,0,0,0,0.1396,0.1396,0.1359,0.1358,0.1357,0.1344,0.1345,0.1345,0.1401,0.1402,0.1403,0.1404,0.1428,0.1428,0.1427,0,0,0,0,0,0,0,0,0,0,0,0,0,0.1387,0.1396,0.1359,0.1378,0.1379,0.1344,0.1345,0.1345,0.14,0.1402,0.1403,0.1405,0.1428,0.1428,0.1427,0.1394,0,0,0.1426,0.1426,0,0,0,0,0,0,0,0,0.1388,0.1387,0.1376,0.1377,0.1378,0.137,0.1366,0.1361,0.14,0.14,0.1404,0.1405,0.1406,0.1408,0.1411,0.1396,0.1397,0.1426,0.1426,0.1426,0.1425,0,0,0,0,0,0,0,0.1389,0.1388,0.136,0.1375,0.1376,0.1373,0.1375,0.1366,0.1401,0.14,0.1402,0.1389,0.1408,0.1412,0.1412,0.1397,0.1426,0.1426,0.1425,0.1425,0.1451,0.1452,0,0,0,0,0,0,0.1376,0.1388,0.1361,0.1359,0.1379,0.1371,0.1373,0.1377,0.14,0.1403,0.1387,0.1391,0.1412,0.1413,0.1413,0.1462,0.1426,0.1425,0.1425,0.145,0.1451,0.1452,0,0,0,0,0,0,0.1377,0.1375,0.1361,0.1367,0.1364,0.1368,0.1372,0.1375,0.1394,0.1389,0.1395,0.1404,0.1413,0.1414,0.1442,0.146,0.1425,0.1425,0.1449,0.145,0.1452,0.1504,0,0,0,0,0,0,0.1379,0.1376,0.1375,0.1366,0.1363,0.1375,0.137,0.1374,0.1379,0.1385,0.1404,0.1407,0.1414,0.1443,0.1442,0.1459,0.1424,0.1448,0.145,0.1451,0.1501,0.1507,0.1512,0,0,0,0,0,0.1381,0.1371,0.1376,0.1372,0.1363,0.1375,0.1376,0.1387,0.1378,0.1406,0.1418,0.1408,0.1453,0.1443,0.1442,0.1459,0.1447,0.1449,0.1451,0.1498,0.1506,0.1512,0,0,0,0,0,0,0.1384,0.1375,0.138,0.1369,0.1387,0.1383,0.1391,0.1388,0.1415,0.1417,0.1418,0.1424,0.146,0.1446,0.1435,0.1472,0.1447,0.1449,0.1484,0.1491,0.1496,0.1523,0.1424,0,0,0,0,0,0.1381,0.1385,0.1382,0.1382,0.1389,0.139,0.1391,0.1399,0.141,0.1424,0.1436,0.1444,0.1461,0.1468,0.1483,0.1491,0.1513,0.1501,0.1507,0.1511,0.1533,0.1594,0.1608,0.1459,0.1459,0.1459,0,0,0.1381,0.1376,0.1378,0.1384,0.1396,0.1404,0.14,0.141,0.1425,0.1418,0.1454,0.1467,0.147,0.1502,0.1513,0.1495,0.1562,0.1514,0.1518,0.1537,0.1598,0.1612,0.1625,0.1461,0.146,0.146,0,0,0.1377,0.1386,0.1387,0.1407,0.1417,0.1417,0.1422,0.1432,0.1458,0.1476,0.1487,0.1519,0.1521,0.155,0.1555,0.1592,0.1597,0.1585,0.1627,0.1686,0.1699,0.1711,0.1748,0.1763,0.1579,0.1579,0.1579,0,0.1376,0.1386,0.1392,0.1405,0.1421,0.1425,0.144,0.1457,0.1477,0.15,0.1498,0.1541,0.1548,0.1594,0.1622,0.1607,0.1637,0.16,0.1695,0.1707,0.1719,0.1754,0.177,0.1582,0.1582,0.1581,0.1581,0,0.138,0.1396,0.1406,0.1426,0.144,0.1466,0.148,0.1507,0.1515,0.1528,0.1587,0.161,0.1639,0.1643,0.1646,0.1726,0.172,0.1703,0.1682,0.1738,0.177,0.1786,0.1586,0.1585,0.1584,0.1584,0,0,0.1364,0.1402,0.1409,0.1426,0.1465,0.1467,0.1507,0.1545,0.1565,0.1601,0.1646,0.1694,0.1711,0.1721,0.1733,0.1789,0.1893,0.1788,0.179,0.1832,0.2023,0.1862,0.1863,0.19,0.1904,0.1906,0.201,0,0.1379,0.1393,0.1421,0.145,0.1461,0.1504,0.1539,0.1567,0.1599,0.1644,0.1688,0.1733,0.1736,0.1761,0.1821,0.1895,0.1939,0.1866,0.1957,0.196,0.1816,0.1877,0.1711,0.1777,0.2025,0.2028,0.203,0,0.1375,0.1387,0.1419,0.1461,0.1475,0.1494,0.155,0.1588,0.1655,0.1687,0.1744,0.1774,0.1882,0.1857,0.2014,0.1974,0.2006,0.2044,0.2048,0.1896,0.1828,0.1763,0.1796,0.2056,0.2054,0.2052,0.205,0,0.1349,0.1383,0.1409,0.1432,0.148,0.1511,0.154,0.1597,0.1652,0.1726,0.1768,0.1865,0.1932,0.2018,0.2089,0.2077,0.2235,0.2216,0.2092,0.208,0.1954,0.1924,0.2302,0.2302,0.2302,0.2302,0.2301,0,0.1359,0.138,0.1392,0.1426,0.1453,0.1484,0.1547,0.1589,0.167,0.1733,0.1796,0.1856,0.1983,0.2068,0.2124,0.2156,0.2261,0.212,0.2105,0.1961,0.1932,0.2182,0.2167,0.2306,0.2305,0.2304,0.2303,0,0.1343,0.137,0.1399,0.1441,0.1456,0.1471,0.1563,0.16,0.1678,0.1767,0.1803,0.1903,0.1996,0.2072,0.2204,0.2181,0.2233,0.2195,0.2,0.1956,0.2036,0.2022,0.2108,0.2103,0.2099,0.2096,0.2093,0,0.1346,0.1352,0.1403,0.1423,0.1457,0.1492,0.153,0.1606,0.1648,0.1785,0.1817,0.1916,0.1945,0.2046,0.2026,0.2054,0.2131,0.1894,0.182,0.2044,0.2021,0.2014,0.2005,0.169,0.1685,0.168,0.1676,0,0.1338,0.1357,0.1386,0.1428,0.1463,0.1501,0.1549,0.1577,0.167,0.1732,0.1801,0.1837,0.1869,0.1797,0.1775,0.177,0.1879,0.179,0.2125,0.1726,0.1648,0.1625,0.1632,0.1634,0.1638,0.1641,0.1643,0.1645,0.1329,0.1332,0.1369,0.1415,0.1458,0.1483,0.1485,0.1522,0.1569,0.16,0.1709,0.1683,0.1645,0.1502,0.1464,0.1435,0.157,0.1525,0.1542,0.1565,0.1459,0.1373,0.1289,0.1291,0.1293,0.1294,0.1296,0,0.1291,0.1309,0.1345,0.1383,0.1406,0.1467,0.1477,0.1452,0.1443,0.1451,0.1484,0.13,0.1224,0.1209,0.1096,0.1074,0.1096,0.1032,0.1076,0.1117,0.1154,0.103,0.0746,0.0744,0.0743,0.0742,0,0,0.1269,0.1278,0.1301,0.1316,0.1361,0.1371,0.1364,0.1302,0.1264,0.1159,0.1091,0.1153,0.1155,0.0925,0.0887,0.0817,0.0961,0.0768,0.1208,0.1301,0.1337,0.1434,0.1286,0,0,0,0,0]},{"header":{"parameterUnit":"m.s-1","parameterCategory":2,"la1":30.2991,"la2":30.254,"lo1":-89.0895,"lo2":-89.0444,"dy":0.0017,"dx":0.0017,"nx":28,"ny":28,"refTime":"2025-05-30T09:00:00:Z","depth":"2","parameterNumber":3,"parameterNumberName":"V-component_of_CURRENTS"},"data":[0,0,0,0,0,0,0,0,0,0,0,0,0,0,0,0,0,0,0,0,0,0,0,0,0,0,0,0,0,0,0,0,0,0,0,0,0,0,0,0,0,0,0,0,0,0,0,0,0,0,0,0,0,0,0,0,0,0,-0.0044,-0.0044,0,-0.0039,-0.0039,-0.004,-0.0054,-0.0055,-0.0055,-0.0055,-0.0048,-0.0048,-0.0047,0,0,0,0,0,0,0,0,0,0,0,0,0,-0.0071,-0.007,-0.0044,-0.0044,-0.0043,-0.0039,-0.0039,-0.004,-0.0054,-0.0055,-0.0055,-0.0055,-0.0048,-0.0048,-0.0047,0,0,0,0,0,0,0,0,0,0,0,0,0,-0.0064,-0.007,-0.0044,-0.0049,-0.0049,-0.0039,-0.0039,-0.004,-0.0054,-0.0055,-0.0055,-0.0056,-0.0049,-0.0048,-0.0047,-0.0035,0,0,-0.0045,-0.0045,0,0,0,0,0,0,0,0,-0.0064,-0.0063,-0.0048,-0.0049,-0.0049,-0.0046,-0.0046,-0.0037,-0.0054,-0.0054,-0.0055,-0.0056,-0.0046,-0.0045,-0.0046,-0.0035,-0.0034,-0.0045,-0.0045,-0.0044,-0.0044,0,0,0,0,0,0,0,-0.0065,-0.0063,-0.0044,-0.0048,-0.0048,-0.0053,-0.0053,-0.0045,-0.0049,-0.0054,-0.0055,-0.0051,-0.0046,-0.0047,-0.0046,-0.0034,-0.0045,-0.0045,-0.0044,-0.0044,-0.0028,-0.0028,0,0,0,0,0,0,-0.006,-0.0064,-0.0044,-0.0044,-0.0056,-0.0052,-0.0052,-0.0048,-0.0049,-0.0049,-0.0051,-0.0052,-0.0048,-0.0047,-0.0046,-0.0046,-0.0044,-0.0044,-0.0043,-0.0028,-0.0028,-0.0028,0,0,0,0,0,0,-0.0061,-0.0059,-0.0044,-0.0052,-0.005,-0.0051,-0.0047,-0.0048,-0.0052,-0.0046,-0.0047,-0.0054,-0.0048,-0.0047,-0.0045,-0.0045,-0.0044,-0.0043,-0.0028,-0.0028,-0.0028,-0.0037,0,0,0,0,0,0,-0.0062,-0.0059,-0.0056,-0.0052,-0.005,-0.004,-0.0046,-0.0047,-0.0048,-0.0049,-0.0049,-0.0049,-0.0048,-0.0046,-0.0045,-0.0044,-0.0042,-0.0028,-0.0028,-0.0028,-0.0036,-0.0037,-0.0037,0,0,0,0,0,-0.0063,-0.0052,-0.0056,-0.0054,-0.0045,-0.004,-0.004,-0.0043,-0.0048,-0.0048,-0.0051,-0.0049,-0.0045,-0.0046,-0.0044,-0.0043,-0.0028,-0.0028,-0.0028,-0.0036,-0.0037,-0.0037,0,0,0,0,0,0,-0.0059,-0.0052,-0.0057,-0.0044,-0.0045,-0.0042,-0.0038,-0.0043,-0.0046,-0.0046,-0.0048,-0.0048,-0.0046,-0.0042,-0.0043,-0.0039,-0.0036,-0.0036,-0.0043,-0.0043,-0.0044,-0.0056,-0.0042,0,0,0,0,0,-0.0058,-0.0051,-0.0047,-0.004,-0.0038,-0.004,-0.0039,-0.004,-0.004,-0.0042,-0.0045,-0.0045,-0.0042,-0.0042,-0.0038,-0.0034,-0.0013,-0.0033,-0.0033,-0.0034,-0.0042,0.0001,0.0004,-0.0028,-0.0028,-0.0028,0,0,-0.0054,-0.0049,-0.0046,-0.0039,-0.0039,-0.0033,-0.0041,-0.0035,-0.0035,-0.0039,-0.0043,-0.0044,-0.0041,-0.004,-0.0039,-0.0039,-0.0012,-0.0034,-0.0034,-0.0042,0.0002,0.0005,0.0008,-0.0028,-0.0028,-0.0028,0,0,-0.004,-0.0041,-0.003,-0.003,-0.0026,-0.0026,-0.0025,-0.0025,-0.0032,-0.0034,-0.0038,-0.0044,-0.0039,-0.0043,-0.0042,-0.0042,-0.0015,-0.0037,-0.005,-0.0008,-0.0005,-0.0002,0.0036,0.0042,-0.0038,-0.0039,-0.0039,0,-0.0037,-0.0025,-0.0027,-0.0018,-0.0017,-0.0023,-0.0014,-0.0019,-0.0022,-0.0027,-0.0035,-0.0039,-0.0042,-0.0041,-0.0051,-0.0043,-0.0013,-0.0049,-0.0008,-0.0004,-0.0001,0.0036,0.0043,-0.0039,-0.0039,-0.0039,-0.0039,0,-0.0016,-0.001,-0.0004,0.0002,0.0004,0.001,0.0005,0.0001,-0.001,-0.0017,-0.0025,-0.0036,-0.0039,-0.0043,-0.0053,-0.0037,-0.002,-0.001,-0.0005,0.0002,0.0041,0.0048,-0.0039,-0.0039,-0.0039,-0.0039,0,0,0.0,0.0009,0.001,0.0013,0.0014,0.0019,0.0018,0.0015,0.0017,-0.0004,-0.0,-0.0029,-0.004,-0.0042,-0.005,-0.0034,0.0006,-0.002,-0.0018,0.0017,0.0106,0.0087,0.0093,0.0033,0.0034,0.0035,0.0126,0,0.0015,0.0037,0.0033,0.0045,0.0056,0.0043,0.0042,0.0036,0.0028,0.0031,0.0006,0.0008,-0.0035,-0.0034,-0.0028,0.0009,0.0025,-0.002,0.0092,0.0095,0.0078,0.0101,0.0082,0.0159,0.0134,0.0135,0.0136,0,0.0038,0.0048,0.0066,0.0068,0.007,0.0071,0.0072,0.0068,0.0064,0.0057,0.0043,0.0039,0.0039,0.0014,0.006,0.0039,0.006,0.0081,0.0086,0.0073,0.0089,0.0146,0.0174,0.0149,0.0148,0.0147,0.0146,0,0.0058,0.007,0.0085,0.0085,0.0087,0.0084,0.008,0.0075,0.0078,0.0079,0.01,0.0089,0.0116,0.0126,0.0144,0.0117,0.0218,0.0198,0.0196,0.0196,0.02,0.0198,0.0231,0.0231,0.0231,0.0231,0.023,0,0.0078,0.0087,0.0094,0.0098,0.0108,0.0101,0.0105,0.0099,0.0109,0.0142,0.0113,0.0169,0.0149,0.0199,0.0188,0.0224,0.026,0.0195,0.0219,0.0196,0.0192,0.0195,0.019,0.0234,0.0233,0.0233,0.0232,0,0.0096,0.0102,0.0115,0.0118,0.0117,0.0121,0.012,0.0136,0.0139,0.0192,0.0202,0.0253,0.0324,0.0305,0.0359,0.0303,0.0326,0.0328,0.0294,0.0309,0.0259,0.0252,0.0327,0.0327,0.0327,0.0328,0.0328,0,0.0106,0.0119,0.0127,0.0141,0.0138,0.0141,0.0153,0.0145,0.0182,0.0268,0.0324,0.0397,0.0495,0.054,0.0451,0.0424,0.0401,0.0357,0.0274,0.0254,0.027,0.0263,0.0256,0.029,0.0289,0.0289,0.0289,0,0.0122,0.0126,0.0139,0.017,0.0184,0.0202,0.0228,0.0271,0.0304,0.0403,0.0568,0.066,0.0656,0.0635,0.0533,0.0493,0.0346,0.0349,0.0381,0.0251,0.0221,0.0235,0.023,0.0287,0.0287,0.0288,0.0288,0.0288,0.0132,0.0148,0.0175,0.0207,0.023,0.0293,0.0343,0.0434,0.0558,0.073,0.0771,0.0893,0.0758,0.0654,0.0541,0.0366,0.0383,0.0299,0.0299,0.03,0.0261,0.0232,0.0293,0.0293,0.0294,0.0294,0.0294,0,0.0153,0.0182,0.0216,0.0269,0.0327,0.0313,0.0421,0.0523,0.0744,0.0861,0.1022,0.0916,0.0856,0.0681,0.0418,0.0283,0.0256,0.0232,0.0217,0.0221,0.0223,0.0179,0.0191,0.019,0.0189,0.0189,0,0,0.0169,0.0212,0.0239,0.0352,0.0391,0.0471,0.0549,0.0758,0.0872,0.1064,0.11,0.1122,0.0885,0.0669,0.0482,0.0329,0.0305,0.0298,0.0396,0.0405,0.0409,0.0279,0.0217,0,0,0,0,0]}],[{"header":{"parameterUnit":"m.s-1","parameterCategory":2,"la1":30.2991,"la2":30.254,"lo1":-89.0895,"lo2":-89.0444,"dy":0.0017,"dx":0.0017,"nx":28,"ny":28,"refTime":"2025-05-30T09:00:00:Z","depth":"4","parameterNumber":2,"parameterNumberName":"U-component_of_CURRENTS"},"data":[0,0,0,0,0,0,0,0,0,0,0,0,0,0,0,0,0,0,0,0,0,0,0,0,0,0,0,0,0,0,0,0,0,0,0,0,0,0,0,0,0,0,0,0,0,0,0,0,0,0,0,0,0,0,0,0,0,0,0.0509,0.0509,0,0.0481,0.0481,0.048,0.0494,0.0495,0.0496,0.0498,0.0576,0.0576,0.0577,0,0,0,0,0,0,0,0,0,0,0,0,0,0.0517,0.0517,0.0509,0.0509,0.051,0.0482,0.0481,0.048,0.0494,0.0495,0.0497,0.0498,0.0575,0.0576,0.0578,0,0,0,0,0,0,0,0,0,0,0,0,0,0.05,0.0517,0.0509,0.0517,0.0517,0.0482,0.0481,0.048,0.0494,0.0495,0.0497,0.0499,0.0575,0.0576,0.0578,0.0552,0,0,0.0582,0.0583,0,0,0,0,0,0,0,0,0.0501,0.0499,0.0515,0.0516,0.0517,0.0497,0.0512,0.0511,0.0493,0.0498,0.0498,0.05,0.0561,0.0564,0.0546,0.0556,0.0559,0.0582,0.0583,0.0584,0.0584,0,0,0,0,0,0,0,0.0502,0.05,0.0494,0.0515,0.0516,0.0502,0.0501,0.0511,0.0518,0.0497,0.0499,0.0503,0.0562,0.0545,0.0549,0.056,0.0582,0.0584,0.0585,0.0585,0.0634,0.0634,0,0,0,0,0,0,0.0516,0.0501,0.0495,0.0493,0.0518,0.0501,0.05,0.0498,0.0516,0.0521,0.0502,0.0504,0.0541,0.0547,0.0552,0.0582,0.0584,0.0585,0.0586,0.0633,0.0634,0.0634,0,0,0,0,0,0,0.0516,0.0515,0.0496,0.0501,0.0498,0.05,0.0497,0.0497,0.0515,0.0519,0.0525,0.0525,0.0543,0.055,0.0574,0.0584,0.0586,0.0587,0.0633,0.0634,0.0634,0.0605,0,0,0,0,0,0,0.0516,0.0515,0.0524,0.0501,0.0498,0.0492,0.0496,0.0495,0.0514,0.0518,0.054,0.0547,0.0545,0.0571,0.0575,0.0586,0.0589,0.0633,0.0633,0.0634,0.0606,0.0605,0.0604,0,0,0,0,0,0.0516,0.0517,0.0524,0.0524,0.0508,0.0493,0.0489,0.0493,0.0515,0.0517,0.053,0.0548,0.058,0.0572,0.0577,0.0588,0.0632,0.0633,0.0634,0.0606,0.0605,0.0604,0,0,0,0,0,0,0.0522,0.0518,0.0525,0.0525,0.0521,0.0498,0.0501,0.0511,0.0519,0.0532,0.0544,0.055,0.0581,0.0588,0.058,0.0606,0.0613,0.0615,0.059,0.0589,0.0589,0.0597,0.059,0,0,0,0,0,0.0528,0.0531,0.0523,0.0526,0.0526,0.0521,0.0521,0.0524,0.0526,0.0532,0.0541,0.056,0.0579,0.059,0.0603,0.0609,0.0643,0.0624,0.0623,0.0622,0.0633,0.0698,0.0704,0.0637,0.0637,0.0637,0,0,0.0533,0.0531,0.0535,0.0529,0.0524,0.0508,0.0525,0.0528,0.0513,0.054,0.0531,0.0563,0.0584,0.0589,0.0604,0.0601,0.0654,0.0623,0.0622,0.0634,0.07,0.0706,0.0712,0.0638,0.0638,0.0638,0,0,0.0529,0.0541,0.0538,0.0529,0.053,0.052,0.0532,0.0519,0.0518,0.0514,0.0537,0.0569,0.0583,0.059,0.0601,0.0607,0.0655,0.0627,0.062,0.0682,0.0688,0.0694,0.0721,0.073,0.0618,0.0618,0.0618,0,0.054,0.0527,0.0536,0.052,0.051,0.053,0.0512,0.0501,0.0497,0.0499,0.0514,0.0554,0.0576,0.0592,0.06,0.0604,0.0649,0.0617,0.0681,0.0688,0.0694,0.0721,0.0732,0.0616,0.0616,0.0617,0.0617,0,0.0518,0.0513,0.0509,0.0494,0.0483,0.0475,0.046,0.0458,0.0471,0.0469,0.0498,0.052,0.0553,0.0565,0.0588,0.0644,0.0663,0.0679,0.0682,0.0699,0.0726,0.0737,0.0614,0.0615,0.0615,0.0616,0,0,0.0527,0.0502,0.0501,0.0484,0.0469,0.0452,0.0432,0.042,0.0421,0.0433,0.0444,0.048,0.0528,0.0546,0.0581,0.0633,0.0711,0.0687,0.0691,0.0711,0.0846,0.0747,0.0749,0.0758,0.076,0.0762,0.0837,0,0.0511,0.0475,0.0466,0.0429,0.0404,0.0404,0.0383,0.0377,0.0384,0.0398,0.0442,0.0483,0.0507,0.0554,0.0603,0.0699,0.0745,0.0689,0.083,0.0833,0.0741,0.076,0.077,0.0846,0.0848,0.085,0.0851,0,0.0486,0.0462,0.0425,0.0389,0.0381,0.0368,0.0347,0.0333,0.0357,0.0377,0.0423,0.0474,0.0551,0.0584,0.0719,0.0695,0.0778,0.0837,0.0841,0.0771,0.0755,0.0832,0.0872,0.087,0.0869,0.0867,0.0866,0,0.0464,0.0431,0.0402,0.0386,0.0352,0.0344,0.034,0.0339,0.0343,0.0394,0.0435,0.0499,0.0575,0.0674,0.0784,0.0786,0.0934,0.094,0.091,0.0903,0.0984,0.0977,0.1048,0.1047,0.1047,0.1047,0.1047,0,0.0435,0.0412,0.0398,0.0371,0.0335,0.0335,0.032,0.0319,0.0368,0.0387,0.045,0.0495,0.0622,0.0707,0.0794,0.0869,0.0938,0.0915,0.0923,0.0965,0.0955,0.099,0.0982,0.105,0.1049,0.1049,0.1048,0,0.0407,0.0404,0.035,0.0321,0.0318,0.0292,0.0308,0.0305,0.0371,0.0408,0.0449,0.054,0.0643,0.0724,0.0882,0.0878,0.0962,0.0977,0.0993,0.1,0.0886,0.0876,0.0946,0.0943,0.0941,0.0939,0.0937,0,0.0389,0.0367,0.0303,0.0261,0.025,0.0238,0.023,0.0292,0.031,0.0421,0.0446,0.0568,0.0618,0.0736,0.0829,0.093,0.0943,0.0956,0.0938,0.0878,0.088,0.0873,0.0867,0.0933,0.0933,0.0932,0.0932,0,0.0346,0.033,0.0275,0.0192,0.0165,0.0133,0.0152,0.0184,0.0272,0.0348,0.0442,0.0516,0.061,0.07,0.0774,0.0853,0.0924,0.0932,0.0938,0.0921,0.0864,0.0866,0.0863,0.0924,0.0925,0.0925,0.0926,0,0.0308,0.0257,0.0194,0.011,0.0069,0.0042,0.0057,0.0115,0.0172,0.0331,0.0359,0.0491,0.0591,0.0663,0.0737,0.0784,0.0794,0.0779,0.0793,0.0803,0.0722,0.0626,0.0625,0,0,0,0,0,0.0273,0.0211,0.012,0.0027,-0.0014,-0.0026,0.0006,0.0049,0.0173,0.022,0.0301,0.039,0.0504,0.0576,0.0607,0.0674,0.0784,0.0703,0.0767,0.0879,0.0888,0.0807,0,0,0,0,0,0,0.0245,0.0172,0.0105,-0.0008,-0.007,-0.0096,-0.0076,-0.0005,0.0044,0.0174,0.0247,0.0345,0.047,0.0488,0.0595,0.0616,0.0643,0.0792,0.079,0.0874,0.0882,0.089,0.0809,0,0,0,0,0]},{"header":{"parameterUnit":"m.s-1","parameterCategory":2,"la1":30.2991,"la2":30.254,"lo1":-89.0895,"lo2":-89.0444,"dy":0.0017,"dx":0.0017,"nx":28,"ny":28,"refTime":"2025-05-30T09:00:00:Z","depth":"4","parameterNumber":3,"parameterNumberName":"V-component_of_CURRENTS"},"data":[0,0,0,0,0,0,0,0,0,0,0,0,0,0,0,0,0,0,0,0,0,0,0,0,0,0,0,0,0,0,0,0,0,0,0,0,0,0,0,0,0,0,0,0,0,0,0,0,0,0,0,0,0,0,0,0,0,0,0.0094,0.0094,0,0.0112,0.0113,0.0113,0.011,0.011,0.0109,0.0109,0.0115,0.0115,0.0116,0,0,0,0,0,0,0,0,0,0,0,0,0,0.0065,0.0065,0.0094,0.0094,0.0094,0.0112,0.0113,0.0113,0.011,0.011,0.0109,0.0109,0.0114,0.0115,0.0116,0,0,0,0,0,0,0,0,0,0,0,0,0,0.0081,0.0065,0.0094,0.0094,0.0094,0.0112,0.0113,0.0113,0.011,0.011,0.0109,0.0108,0.0114,0.0115,0.0116,0.0134,0,0,0.0118,0.0119,0,0,0,0,0,0,0,0,0.008,0.0082,0.0094,0.0094,0.0094,0.0107,0.0104,0.0119,0.0111,0.0106,0.0109,0.0108,0.011,0.0112,0.0119,0.0135,0.0135,0.0119,0.0119,0.0119,0.012,0,0,0,0,0,0,0,0.0079,0.0081,0.0103,0.0094,0.0094,0.0095,0.0097,0.0107,0.0113,0.0106,0.0106,0.0105,0.011,0.0118,0.0119,0.0135,0.0118,0.0119,0.012,0.012,0.0143,0.0143,0,0,0,0,0,0,0.0074,0.0081,0.0102,0.0103,0.0084,0.0096,0.0098,0.0105,0.0113,0.0113,0.0106,0.0105,0.0117,0.0118,0.0119,0.0145,0.0119,0.012,0.0121,0.0143,0.0143,0.0143,0,0,0,0,0,0,0.0074,0.0076,0.0101,0.009,0.0094,0.0097,0.0105,0.0105,0.0107,0.0112,0.0113,0.0106,0.0116,0.0118,0.0129,0.0145,0.0121,0.0121,0.0143,0.0143,0.0143,0.0194,0,0,0,0,0,0,0.0073,0.0076,0.0078,0.009,0.0094,0.0116,0.0105,0.0106,0.0107,0.0106,0.0112,0.0113,0.0116,0.0128,0.013,0.0145,0.0122,0.0143,0.0143,0.0143,0.0192,0.0196,0.0199,0,0,0,0,0,0.0072,0.0082,0.0079,0.0081,0.0098,0.0116,0.0119,0.0119,0.0108,0.0117,0.0118,0.0112,0.013,0.0129,0.0132,0.0147,0.0143,0.0143,0.0143,0.0191,0.0195,0.0199,0,0,0,0,0,0,0.0073,0.0083,0.0079,0.0092,0.0102,0.0115,0.0122,0.0118,0.0126,0.0123,0.0122,0.0123,0.0135,0.0131,0.013,0.0151,0.0132,0.0133,0.0167,0.0172,0.0175,0.0198,0.0123,0,0,0,0,0,0.0073,0.0082,0.0092,0.0102,0.0107,0.0112,0.0117,0.0119,0.0127,0.013,0.0133,0.0133,0.0139,0.0147,0.0149,0.017,0.0153,0.0176,0.018,0.0183,0.0201,0.0169,0.0171,0.0144,0.0144,0.0144,0,0,0.0074,0.0082,0.0086,0.0102,0.0109,0.013,0.0114,0.0127,0.0149,0.013,0.0156,0.0145,0.0144,0.0165,0.017,0.0165,0.0182,0.0183,0.0186,0.0203,0.0169,0.0172,0.0174,0.0144,0.0144,0.0144,0,0,0.0088,0.0091,0.0104,0.0117,0.013,0.014,0.0142,0.0155,0.0164,0.0186,0.0173,0.0175,0.0187,0.0195,0.0198,0.0221,0.0195,0.0211,0.0259,0.0227,0.0229,0.0231,0.0218,0.0218,0.022,0.022,0.022,0,0.0088,0.011,0.0111,0.0131,0.0149,0.0145,0.0171,0.0186,0.0201,0.0218,0.0199,0.0215,0.0207,0.0238,0.0245,0.0233,0.021,0.0247,0.0233,0.0234,0.0235,0.022,0.022,0.0222,0.0222,0.0222,0.0221,0,0.0116,0.0134,0.0146,0.0173,0.0192,0.0215,0.0236,0.0257,0.0261,0.0272,0.0294,0.0283,0.0294,0.0285,0.0277,0.0286,0.0266,0.0235,0.0226,0.0241,0.0224,0.0223,0.0226,0.0225,0.0224,0.0224,0,0,0.0119,0.0157,0.0162,0.0187,0.0219,0.0242,0.0285,0.0327,0.0358,0.0362,0.0394,0.0398,0.038,0.0382,0.0361,0.0341,0.0325,0.0297,0.0294,0.0292,0.0264,0.025,0.0247,0.0282,0.0282,0.0282,0.0252,0,0.0142,0.0191,0.0205,0.026,0.0291,0.0314,0.0358,0.0394,0.0413,0.0442,0.0435,0.0449,0.0421,0.042,0.0397,0.0337,0.0323,0.0338,0.0244,0.0242,0.0234,0.0246,0.0282,0.025,0.025,0.025,0.025,0,0.0167,0.0201,0.0256,0.0317,0.0333,0.0368,0.0441,0.0478,0.0518,0.0531,0.0544,0.0526,0.052,0.0473,0.0407,0.0413,0.0353,0.0304,0.03,0.0273,0.0226,0.0229,0.0247,0.0247,0.0247,0.0247,0.0248,0,0.0179,0.0238,0.0286,0.0308,0.0374,0.0413,0.0453,0.0507,0.0551,0.0584,0.0599,0.0587,0.0566,0.0501,0.0413,0.0402,0.0321,0.0287,0.0229,0.0228,0.0227,0.0225,0.0242,0.0242,0.0242,0.0242,0.0242,0,0.0204,0.0242,0.0298,0.0329,0.0403,0.0436,0.0517,0.0555,0.0604,0.0644,0.0639,0.0647,0.0564,0.0511,0.0432,0.0334,0.0336,0.0251,0.022,0.0249,0.025,0.0226,0.0225,0.0241,0.0241,0.0241,0.0242,0,0.0206,0.0241,0.0304,0.038,0.0412,0.0465,0.0563,0.062,0.0651,0.0696,0.0705,0.0685,0.0612,0.0537,0.0419,0.0352,0.0264,0.0228,0.0289,0.0259,0.019,0.0191,0.0166,0.0166,0.0165,0.0165,0.0164,0,0.0211,0.0241,0.0338,0.0386,0.0424,0.051,0.058,0.0647,0.0693,0.0713,0.0723,0.0677,0.0648,0.0492,0.0403,0.0279,0.0248,0.021,0.0189,0.021,0.0182,0.0185,0.0187,0.0163,0.0163,0.0163,0.0163,0,0.0219,0.0251,0.0307,0.0408,0.0489,0.058,0.0661,0.0693,0.0747,0.0771,0.0732,0.0666,0.0583,0.0475,0.0384,0.0289,0.024,0.0203,0.0203,0.0183,0.0206,0.0179,0.0182,0.0161,0.0161,0.0161,0.0161,0,0.0226,0.0264,0.034,0.0431,0.0527,0.0609,0.0662,0.0704,0.0752,0.075,0.0729,0.0654,0.0608,0.048,0.0395,0.0308,0.0273,0.023,0.0228,0.0229,0.0252,0.029,0.0256,0,0,0,0,0,0.0235,0.0282,0.036,0.047,0.0559,0.0622,0.07,0.074,0.0773,0.0744,0.0734,0.0658,0.0524,0.0478,0.0386,0.0382,0.0264,0.027,0.0214,0.0149,0.0151,0.0166,0,0,0,0,0,0,0.0248,0.0313,0.0359,0.0476,0.0552,0.0666,0.0717,0.0742,0.0722,0.0722,0.0658,0.0625,0.0508,0.0576,0.0382,0.0359,0.0306,0.0217,0.0214,0.0148,0.015,0.0152,0.0168,0,0,0,0,0]}]]